TimeCST,TemperatureF,Dew PointF,Humidity,Sea Level PressureIn,VisibilityMPH,Wind Direction,Wind SpeedMPH,Gust SpeedMPH,PrecipitationIn,Events,Conditions,WindDirDegrees,DateUTC
12:48 AM,44.6,37.4,76,29.86,10.0,NNW,11.5,-,N/A,,Mostly Cloudy,340,2012-12-10 06:48:00
12:53 AM,45.0,37.0,74,29.86,10.0,North,11.5,-,N/A,,Mostly Cloudy,350,2012-12-10 06:53:00
1:53 AM,44.1,37.9,79,29.85,10.0,North,8.1,-,N/A,,Overcast,350,2012-12-10 07:53:00
2:08 AM,44.6,37.4,76,29.86,10.0,NNW,9.2,-,N/A,,Overcast,340,2012-12-10 08:08:00
2:53 AM,43.0,35.1,74,29.85,10.0,NNW,15.0,-,N/A,,Overcast,330,2012-12-10 08:53:00
3:31 AM,41.0,33.8,76,29.85,10.0,NNW,15.0,20.7,N/A,,Scattered Clouds,340,2012-12-10 09:31:00
3:53 AM,39.9,32.0,73,29.85,10.0,NNW,13.8,-,N/A,,Clear,340,2012-12-10 09:53:00
4:53 AM,37.0,28.9,73,29.86,10.0,NNW,13.8,-,N/A,,Scattered Clouds,330,2012-12-10 10:53:00
5:05 AM,37.4,28.4,70,29.86,10.0,NNW,11.5,-,N/A,,Mostly Cloudy,330,2012-12-10 11:05:00
5:53 AM,34.0,28.0,79,29.88,9.0,North,17.3,-,0.00,,Mostly Cloudy,350,2012-12-10 11:53:00
6:08 AM,33.8,26.6,75,29.89,10.0,North,15.0,-,N/A,,Partly Cloudy,350,2012-12-10 12:08:00
6:53 AM,32.0,25.0,75,29.91,10.0,NNW,12.7,-,N/A,,Mostly Cloudy,340,2012-12-10 12:53:00
7:53 AM,32.0,25.0,75,29.95,10.0,NNW,12.7,-,N/A,,Overcast,340,2012-12-10 13:53:00
9:26 AM,30.2,23.0,75,29.95,9.0,NNW,15.0,-,0.00,Snow,Light Snow,340,2012-12-10 15:26:00
9:42 AM,32.0,24.8,75,29.95,9.0,NW,12.7,-,0.00,,Overcast,310,2012-12-10 15:42:00
9:53 AM,32.0,24.1,73,29.96,10.0,NNW,13.8,-,0.00,Snow,Light Snow,340,2012-12-10 15:53:00
10:53 AM,32.0,24.1,73,29.96,9.0,NW,13.8,-,0.00,Snow,Light Snow,320,2012-12-10 16:53:00
11:53 AM,32.0,23.0,69,29.95,9.0,North,12.7,-,0.00,Snow,Light Snow,350,2012-12-10 17:53:00
12:53 PM,32.0,23.0,69,29.92,9.0,NNW,13.8,-,0.00,Snow,Light Snow,340,2012-12-10 18:53:00
1:53 PM,33.1,24.1,70,29.94,9.0,North,13.8,-,0.00,Snow,Light Snow,350,2012-12-10 19:53:00
2:07 PM,33.8,23.0,65,29.93,9.0,NNW,12.7,-,0.00,Snow,Light Snow,340,2012-12-10 20:07:00
2:43 PM,33.8,24.8,70,29.94,10.0,WNW,10.4,-,0.00,,Mostly Cloudy,300,2012-12-10 20:43:00
2:53 PM,34.0,24.1,67,29.94,10.0,NNW,10.4,-,0.00,,Mostly Cloudy,330,2012-12-10 20:53:00
3:53 PM,34.0,24.1,67,29.97,10.0,NNW,9.2,-,0.00,,Overcast,330,2012-12-10 21:53:00
4:32 PM,33.8,24.8,70,29.98,10.0,NNW,8.1,-,0.00,,Overcast,330,2012-12-10 22:32:00
4:53 PM,34.0,25.0,70,30.00,10.0,NNW,8.1,-,0.00,,Overcast,330,2012-12-10 22:53:00
5:53 PM,33.1,23.0,66,30.03,10.0,NW,11.5,-,N/A,,Overcast,320,2012-12-10 23:53:00
6:14 PM,32.0,23.0,69,30.03,10.0,NNW,13.8,-,N/A,,Overcast,330,2012-12-11 00:14:00
6:53 PM,30.9,21.9,69,30.05,10.0,NNW,12.7,-,N/A,,Overcast,330,2012-12-11 00:53:00
7:53 PM,30.9,21.0,67,30.06,10.0,NNW,13.8,-,0.00,,Overcast,340,2012-12-11 01:53:00
8:53 PM,30.0,19.9,66,30.07,10.0,NNW,11.5,-,N/A,,Overcast,340,2012-12-11 02:53:00
9:53 PM,30.9,19.9,64,30.09,10.0,NNW,8.1,-,N/A,,Overcast,330,2012-12-11 03:53:00
10:53 PM,30.9,19.9,64,30.10,10.0,NNW,8.1,-,N/A,,Overcast,340,2012-12-11 04:53:00
11:53 PM,30.0,19.0,64,30.10,9.0,NNW,10.4,-,0.00,,Overcast,340,2012-12-11 05:53:00